COSMOS 2569 (GLONASS)

Satellite information

Favourite Embed

Satellite Type and Status

PAYLOADIN ORBIT

Key statistics

Satellite COSMOS 2569 (GLONASS) at a glance.

Uptime

860

Days in orbit

Revolutions

≈ 2.1

Per day

Orbit

MEO

Medium Earth Orbit

Inclination

65.2

Latest

Satellite identification and parameters

Extended collection of information and parameters for COSMOS 2569 (GLONASS).

Object identification

Identified? True

Debris? False

Object name: COSMOS 2569 (GLONASS)

International designator: 2023-114A

Object number (NORAD): 57517

Object ID (CCSDS): 57517

Country: COMMONWEALTH OF INDEPENDENT STATES (CIS)

Current information (Y/N): Y

RCS size: LARGE

Orbital parameters

Period: 675.726 minutes

Inclination: 65.1943 deg

SMA: 25507.866 km

Apoapsis: 19156.612 km

Periapsis: 19102.85 km

RAAN: 78.9061 deg

Eccentricy: 0.00105383

Argument of periapsis: 287.004 deg

Mean anomaly: 72.8956 deg

Mean motion: 2.13103989 rev/day

Mean motion (dot): -0.00000045 rev/day2

B* drag term: 0.0 1/REarth

Two-line elements (TLE)

Creation date: Dec. 14, 2025, 3:07 a.m.

Reference frame: TEME

Reference center: EARTH

Epoch: Dec. 12, 2025, 11 p.m. UTC

TLE line 0: 0 COSMOS 2569 (GLONASS)

TLE line 1: 1 57517U 23114A 25346.95840690 -.00000045 00000-0 00000-0 0 9997

TLE line 2: 2 57517 65.1943 78.9061 0010538 287.0040 72.8956 2.13103989 18297

Live tracking on map

Real-time ground track for satellite COSMOS 2569 (GLONASS).

In-orbit conjunctions

There are no conjunctions computed for COSMOS 2569 (GLONASS), at the moment. Check back to stay up to date, as we update our databases every day.

Go to all conjunctions

Associated space launch

Glonass-K2 are the fourth generation of satellite design for GLONASS satellite navigation system. GLONASS is a Russian space-based navigation system comparable to the similar GPS and Galileo systems. This generation improves on accuracy, power consumption and design life. Each satellite is unpressurized and weighs 1645 kg, and has an operational lifetime of 10 years.

COSMOS 2569 (GLONASS) was lifted into orbit during the mission ‘Soyuz 2.1b/Fregat-M | Glonass-K2 No. 13 (Kosmos 2569)’, on board a Soyuz 2.1b/Fregat-M space rocket.

The launch took place on Aug. 7, 2023, 1:19 p.m. from 43/3 (43L).

For more information about the launch, click the button.

Launch to space Soyuz 2.1b/Fregat-M | Glonass-K2 No. 13 (Kosmos 2569)
Soyuz 2.1b/Fregat-M | Glonass-K2 No. 13 (Kosmos 2569)

Agency: Russian Space Forces

Status: Launch Successful

Launch date: Aug. 7, 2023, 1:19 p.m. UTC

Rocket: Soyuz 2.1b/Fregat-M

Launch pad: 43/3 (43L)

Location: Plesetsk Cosmodrome, Russian Federation

...

Latest news about this satellite

There are no fresh news available about this satellite. Check back as we update our databases every day.


Newsletter sign-up

Weekly statistics, charts and insights to help you stay on top of the space industry.